Change the Weather History Date:

Friday, December 14, 2012

  Actual Average Record
Temperature  
Mean Temperature 40 °F 30 °F  
Max Temperature 49 °F 37 °F 62 °F (1984)
Min Temperature 31 °F 23 °F -13 °F (1958)
Degree Days  
Heating Degree Days 25 35  
Month to date heating degree days 318 461  
Since 1 July heating degree days 1647 1742  
Cooling Degree Days 0 0  
Month to date cooling degree days 0 0  
Year to date cooling degree days 955 632  
Moisture  
Dew Point 26 °F    
Average Humidity 59    
Maximum Humidity 75    
Minimum Humidity 42    
Precipitation  
Precipitation 0.00 in 0.10 in 1.21 in (1977)
Month to date precipitation 1.70 1.53  
Year to date precipitation 38.00 42.43  
Snow  
Snow 0.00 in 0.40 in - ()
Month to date snowfall T 4.0  
Since 1 July snowfall 2.6 6.7  
Snow Depth 0.00 in    
Sea Level Pressure  
Sea Level Pressure 30.25 in    
Wind  
Wind Speed 7 mph (SSW)    
Max Wind Speed 14 mph    
Max Gust Speed 18 mph    
Visibility 10 miles    
Events      
T = Trace of Precipitation, MM = Missing Value Source: NWS Daily Summary

Daily Weather History Graph

Daily Weather History Graph

Search for Another Location

Airport or City:

Trip Planner

Search our weather history database for the weather conditions in past years. The results will help you decide how hot, cold, wet, or windy it might be!

Date:

Astronomy

Dec. 14, 2012 Rise Set
Actual Time 7:46 AM EST 5:03 PM EST
Civil Twilight 7:15 AM EST 5:34 PM EST
Nautical Twilight 6:41 AM EST 6:08 PM EST
Astronomical Twilight 6:08 AM EST 6:41 PM EST
Moon 8:50 AM EST (12/14) 6:54 PM EST (12/14)
Length of Visible Light 10h 18m
Length of Day
9h 16m
Waxing Crescent, 3% of the Moon is Illuminated
Dec 14
Waxing Crescent
Dec 20
First Quarter
Dec 28
Full
Jan 4
Last Quarter
Jan 11
New

Hourly Weather History & Observations

Time (EST) Temp. Windchill Dew Point Humidity Pressure Visibility Wind Dir Wind Speed Gust Speed Precip Events Conditions
12:52 AM 34.0 °F 25.0 °F 24.1 °F 67% 30.25 in 10.0 mi South 12.7 mph - N/A   Clear
1:52 AM 32.0 °F 24.2 °F 24.1 °F 73% 30.25 in 10.0 mi SSW 9.2 mph - N/A   Clear
2:52 AM 35.1 °F 27.9 °F 25.0 °F 67% 30.26 in 10.0 mi SSW 9.2 mph - N/A   Clear
3:52 AM 35.1 °F 27.9 °F 26.1 °F 70% 30.27 in 10.0 mi SSW 9.2 mph - N/A   Clear
4:52 AM 37.0 °F 31.0 °F 24.1 °F 59% 30.26 in 10.0 mi SW 8.1 mph - N/A   Clear
5:52 AM 36.0 °F 29.0 °F 25.0 °F 64% 30.27 in 10.0 mi SW 9.2 mph - N/A   Clear
6:52 AM 35.1 °F 28.6 °F 25.0 °F 67% 30.27 in 10.0 mi SSW 8.1 mph - N/A   Clear
7:52 AM 32.0 °F 25.6 °F 24.1 °F 73% 30.27 in 10.0 mi SW 6.9 mph - N/A   Clear
8:52 AM 37.0 °F 31.6 °F 25.0 °F 62% 30.29 in 10.0 mi SW 6.9 mph - N/A   Clear
9:52 AM 41.0 °F 35.8 °F 25.0 °F 53% 30.28 in 10.0 mi SW 8.1 mph - N/A   Clear
10:52 AM 43.0 °F 38.2 °F 25.0 °F 49% 30.29 in 10.0 mi West 8.1 mph - N/A   Clear
11:52 AM 45.0 °F 40.1 °F 26.1 °F 48% 30.29 in 10.0 mi West 9.2 mph - N/A   Clear
12:52 PM 46.9 °F - 27.0 °F 46% 30.26 in 10.0 mi Variable 5.8 mph - N/A   Clear
1:52 PM 48.0 °F - 27.0 °F 44% 30.24 in 10.0 mi SSW 5.8 mph - N/A   Clear
2:52 PM 48.9 °F - 27.0 °F 43% 30.21 in 10.0 mi South 6.9 mph - N/A   Clear
3:52 PM 46.9 °F - 27.0 °F 46% 30.22 in 10.0 mi South 9.2 mph - N/A   Clear
4:52 PM 41.0 °F 38.0 °F 26.1 °F 55% 30.23 in 10.0 mi SSW 4.6 mph - N/A   Clear
5:52 PM 37.9 °F 34.4 °F 27.0 °F 65% 30.22 in 10.0 mi South 4.6 mph - N/A   Clear
6:52 PM 37.0 °F 31.6 °F 27.0 °F 67% 30.23 in 10.0 mi South 6.9 mph - N/A   Clear
7:52 PM 35.1 °F 29.3 °F 28.0 °F 76% 30.25 in 10.0 mi South 6.9 mph - N/A   Clear
8:52 PM 37.0 °F 32.4 °F 28.0 °F 70% 30.24 in 10.0 mi South 5.8 mph - N/A   Clear
9:52 PM 37.0 °F 34.5 °F 28.0 °F 70% 30.23 in 10.0 mi South 3.5 mph - N/A   Clear
10:52 PM 36.0 °F 31.1 °F 28.0 °F 73% 30.21 in 10.0 mi South 5.8 mph - N/A   Clear
11:52 PM 36.0 °F 31.1 °F 27.0 °F 70% 30.20 in 10.0 mi South 5.8 mph - N/A   Clear